This demonstration page uses our WeatherBlox Daily Observations layout. Learn more.

Left ArrowRight Arrow

34.16533, -84.80231

Hourly Observations for July 1, 2017

Temp ( °F °C ) Dew Point ( °F °C ) Humidity (%) Winds ( mph kmh ) Pressure ( in mb ) Visibility ( mi km ) Precip ( " mm )
12:53 am 00:53 Clear 73 22.8 73 22.8 100 100 S 3 6 30.05 1018 10 16 0.00 0.00
1:53 am 01:53 Partly Cloudy 72 22.2 72 22.2 100 100 Calm 30.06 1018 10 16 0.00 0.00
1:55 am 01:55 Mostly Cloudy 72 22.2 72 22.2 100 100 Calm 30.06 1018 10 16 0.00 0.00
2:53 am 02:53 Mostly Cloudy 72 22.2 72 22.2 100 100 Calm 30.04 1017 10 16 0.00 0.00
3:53 am 03:53 Cloudy 71 21.7 71 21.7 100 100 Calm 30.04 1017 10 16 0.00 0.00
4:04 am 04:04 Cloudy 71 21.7 71 21.7 100 100 Calm 30.06 1018 10 16 0.00 0.00
4:29 am 04:29 Mostly Cloudy 71 21.7 71 21.7 100 100 Calm 30.03 1017 10 16 0.00 0.00
4:53 am 04:53 Mostly Cloudy 70 21.1 70 21.1 100 100 Calm 30.04 1017 9 14 0.00 0.00
5:00 am 05:00 Partly Cloudy 70 21.1 70 21.1 100 100 Calm 30.03 1017 10 16 0.00 0.00
5:53 am 05:53 Mostly Cloudy 70 21.1 70 21.1 100 100 Calm 30.04 1017 9 14 0.00 0.00
6:31 am 06:31 Mostly Cloudy 70 21.1 70 21.1 100 100 Calm 30.06 1018 9 14 0.00 0.00
6:53 am 06:53 Cloudy 70 21.1 70 21.1 100 100 Calm 30.06 1018 9 14 0.00 0.00
7:53 am 07:53 Mostly Cloudy 72 22.2 72 22.2 100 100 Calm 30.07 1018 10 16 0.00 0.00
8:11 am 08:11 Cloudy 72 22.2 72 22.2 100 100 Calm 30.09 1019 10 16 0.00 0.00
8:53 am 08:53 Cloudy 73 22.8 72 22.2 96 96 Calm 30.09 1019 10 16 0.00 0.00
9:53 am 09:53 Cloudy 74 23.3 72 22.2 94 94 Calm 30.09 1019 10 16 0.00 0.00
10:34 am 10:34 Cloudy 75 23.9 73 22.8 94 94 VRB 3 6 30.09 1019 10 16 0.00 0.00
10:53 am 10:53 Cloudy 76 24.4 73 22.8 91 91 VRB 5 7 30.09 1019 10 16 0.00 0.00
11:02 am 11:02 Cloudy 76 24.4 73 22.8 91 91 Calm 30.09 1019 10 16 0.00 0.00
11:35 am 11:35 Cloudy 77 25 74 23.3 90 90 VRB 3 6 30.09 1019 10 16 0.00 0.00
11:53 am 11:53 Cloudy 79 26.1 74 23.3 85 85 S 6 9 30.08 1019 10 16 0.00 0.00
12:53 pm 12:53 Cloudy 83 28.3 75 23.9 77 77 Calm 30.07 1018 10 16 0.00 0.00
1:53 pm 13:53 Mostly Cloudy 85 29.4 75 23.9 72 72 VRB 3 6 30.06 1018 10 16 0.00 0.00
2:05 pm 14:05 Mostly Cloudy 85 29.4 75 23.9 72 72 SSW 6 9 30.03 1017 10 16 0.00 0.00
2:53 pm 14:53 Mostly Sunny 87 30.6 75 23.9 67 67 VRB 7 11 30.05 1018 10 16 0.00 0.00
3:53 pm 15:53 Mostly Sunny 88 31.1 75 23.9 66 66 VRB 5 7 30.02 1017 10 16 0.00 0.00
4:53 pm 16:53 Mostly Cloudy 87 30.6 75 23.9 67 67 VRB 6 9 30.02 1017 10 16 0.00 0.00
5:34 pm 17:34 Partly Cloudy with Nearby Thunderstorms 87 30.6 75 23.9 67 67 VRB 5 7 30.00 1016 10 16 0.00 0.00
5:53 pm 17:53 Partly Cloudy with Nearby Thunderstorms 86 30 75 23.9 70 70 VRB 7 11 30.01 1016 10 16 0.00 0.00
6:02 pm 18:02 Mostly Cloudy with Thunderstorms 85 29.4 75 23.9 72 72 S 10 17 30.00 1016 10 16 0.00 0.00
6:16 pm 18:16 Mostly Cloudy with Nearby Thunderstorms 82 27.8 73 22.8 74 74 undefined N/A 30.03 1017 10 16 0.00 0.00
6:23 pm 18:23 Mostly Cloudy with Thunderstorms 75 23.9 69 20.6 82 82 ENE 8 13 30.06 1018 10 16 0.00 0.00
6:32 pm 18:32 Mostly Cloudy with Nearby Thunderstorms 75 23.9 69 20.6 82 82 N 8 13 30.09 1019 10 16 0.00 0.00
6:40 pm 18:40 Cloudy with Thunderstorms 73 22.8 69 20.6 87 87 NE 10 17 30.09 1019 10 16 0.00 0.00
6:53 pm 18:53 Mostly Cloudy 73 22.8 70 21.1 90 90 ENE 7 11 30.07 1018 10 16 0.00 0.00
7:53 pm 19:53 Mostly Sunny 73 22.8 72 22.2 96 96 SE 6 9 30.06 1018 10 16 0.00 0.00
8:03 pm 20:03 Sunny with Nearby Thunderstorms 73 22.8 72 22.2 96 96 SE 6 9 30.06 1018 10 16 0.00 0.00
8:24 pm 20:24 Mostly Cloudy with Thunderstorms 75 23.9 71 21.7 88 88 VRB 5 7 30.09 1019 10 16 0.00 0.00
8:53 pm 20:53 Mostly Cloudy with Nearby Thunderstorms 72 22.2 71 21.7 97 97 SE 6 9 30.08 1019 10 16 0.04 1.02
9:17 pm 21:17 Partly Cloudy 72 22.2 72 22.2 100 100 VRB 5 7 30.06 1018 10 16 0.00 0.00
9:53 pm 21:53 Clear 72 22.2 72 22.2 100 100 Calm 30.09 1019 10 16 0.00 0.00
10:53 pm 22:53 Clear 71 21.7 71 21.7 100 100 Calm 30.11 1020 10 16 0.00 0.00
11:53 pm 23:53 Partly Cloudy 70 21.1 70 21.1 100 100 N 6 9 30.12 1020 10 16 0.00 0.00

Powered by AerisWeather